Precipitable_Water
2.03 2.02 2.09 2.11 2.06 2.06 2.11 2.02 1.97 1.86 1.74 1.64 1.57 1.48 1.48 1.55 1.54 1.54 1.51 1.45 1.48 1.54 1.54 1.55 1.57 1.58 1.58 1.61 1.64 1.65 1.65 1.65 1.67 1.70 1.74 1.78 1.79 1.79 1.77 1.73 1.71 1.71 1.72 1.75 1.78 1.81 1.81 1.80 1.81 1.80 1.79 1.80 1.79 1.77 1.75 1.72 1.64 1.58 1.57 1.50 1.53 1.62 1.68 1.69 1.67 1.67 1.67 1.70 1.71 1.75 1.76 1.75 1.75 1.74 1.72 1.69 1.66 1.68 1.74 1.77 1.80 1.84 1.76 1.81 1.81
2.00 2.07 2.09 2.09 2.04 2.03 2.03 1.94 1.90 1.81 1.68 1.59 1.52 1.50 1.54 1.55 1.54 1.53 1.49 1.48 1.54 1.54 1.54 1.55 1.57 1.58 1.61 1.63 1.65 1.67 1.67 1.69 1.72 1.76 1.78 1.81 1.82 1.80 1.76 1.72 1.70 1.70 1.73 1.76 1.78 1.81 1.82 1.81 1.82 1.83 1.85 1.84 1.82 1.81 1.80 1.76 1.66 1.61 1.63 1.56 1.57 1.70 1.76 1.80 1.85 1.80 1.80 1.83 1.78 1.80 1.79 1.77 1.75 1.73 1.72 1.71 1.69 1.70 1.70 1.72 1.76 1.78 1.78 1.81 1.82
2.03 2.04 2.09 2.07 2.04 2.06 2.02 1.97 1.90 1.77 1.63 1.58 1.55 1.55 1.55 1.54 1.54 1.52 1.47 1.51 1.54 1.55 1.57 1.56 1.56 1.58 1.60 1.61 1.64 1.66 1.68 1.70 1.74 1.78 1.79 1.79 1.78 1.76 1.74 1.71 1.69 1.73 1.77 1.79 1.83 1.83 1.86 1.83 1.85 1.88 1.88 1.86 1.84 1.82 1.80 1.75 1.66 1.60 1.64 1.62 1.57 1.71 1.81 1.85 1.87 1.89 1.86 1.84 1.84 1.83 1.83 1.80 1.73 1.70 1.70 1.72 1.75 1.77 1.77 1.74 1.76 1.74 1.73 1.81 1.79
1.95 2.02 2.08 2.06 2.09 2.12 2.00 1.96 1.86 1.70 1.64 1.60 1.58 1.56 1.54 1.54 1.52 1.46 1.48 1.51 1.53 1.56 1.57 1.56 1.56 1.58 1.60 1.61 1.63 1.64 1.67 1.68 1.70 1.74 1.77 1.79 1.77 1.77 1.73 1.71 1.72 1.75 1.78 1.81 1.84 1.86 1.87 1.87 1.90 1.87 1.88 1.87 1.86 1.85 1.83 1.78 1.69 1.62 1.63 1.69 1.62 1.67 1.80 1.84 1.85 1.87 1.87 1.88 1.88 1.86 1.83 1.78 1.75 1.72 1.70 1.70 1.71 1.74 1.76 1.76 1.76 1.71 1.70 1.73 1.77
1.94 2.03 2.04 2.04 2.08 2.06 1.98 1.93 1.80 1.65 1.61 1.59 1.55 1.52 1.53 1.51 1.43 1.46 1.50 1.50 1.52 1.54 1.54 1.54 1.56 1.59 1.61 1.62 1.64 1.64 1.65 1.66 1.68 1.72 1.76 1.77 1.78 1.77 1.73 1.71 1.74 1.79 1.80 1.81 1.85 1.86 1.89 1.93 1.92 1.91 1.90 1.90 1.90 1.87 1.85 1.78 1.72 1.67 1.63 1.68 1.70 1.64 1.73 1.84 1.86 1.90 1.93 1.90 1.91 1.89 1.86 1.83 1.79 1.76 1.70 1.64 1.64 1.66 1.68 1.70 1.69 1.70 1.73 1.71 1.75
1.98 2.02 2.02 2.01 2.02 2.04 1.92 1.85 1.70 1.61 1.58 1.54 1.52 1.54 1.52 1.43 1.43 1.47 1.48 1.48 1.49 1.50 1.52 1.54 1.56 1.58 1.59 1.61 1.63 1.66 1.69 1.69 1.68 1.70 1.73 1.74 1.75 1.77 1.75 1.73 1.74 1.77 1.78 1.81 1.86 1.89 1.92 1.92 1.96 1.90 1.90 1.89 1.90 1.90 1.87 1.81 1.71 1.61 1.62 1.66 1.69 1.67 1.67 1.79 1.85 1.89 1.89 1.92 1.88 1.87 1.87 1.84 1.78 1.75 1.72 1.64 1.59 1.59 1.61 1.62 1.67 1.71 1.75 1.72 1.74
1.92 1.94 1.97 1.99 1.97 1.94 1.87 1.77 1.65 1.58 1.54 1.53 1.56 1.53 1.45 1.39 1.43 1.45 1.45 1.46 1.47 1.48 1.51 1.54 1.56 1.56 1.58 1.60 1.63 1.66 1.67 1.68 1.68 1.70 1.73 1.76 1.76 1.78 1.78 1.77 1.77 1.78 1.79 1.82 1.88 1.90 1.90 1.93 1.94 1.93 1.93 1.92 1.88 1.88 1.87 1.81 1.73 1.64 1.59 1.62 1.70 1.74 1.78 1.81 1.86 1.88 1.91 1.91 1.90 1.88 1.87 1.83 1.77 1.74 1.75 1.71 1.66 1.58 1.56 1.57 1.59 1.66 1.68 1.71 1.76
1.89 1.91 1.98 1.99 1.93 1.86 1.80 1.67 1.60 1.56 1.56 1.58 1.54 1.47 1.38 1.38 1.42 1.43 1.43 1.46 1.47 1.48 1.51 1.54 1.54 1.56 1.57 1.59 1.62 1.63 1.65 1.67 1.69 1.72 1.75 1.76 1.76 1.77 1.78 1.78 1.79 1.81 1.83 1.86 1.90 1.91 1.88 1.87 1.91 1.92 1.93 1.88 1.85 1.87 1.89 1.86 1.78 1.67 1.55 1.57 1.68 1.77 1.82 1.85 1.84 1.87 1.92 1.94 1.91 1.88 1.87 1.83 1.75 1.76 1.77 1.74 1.70 1.61 1.56 1.57 1.56 1.62 1.68 1.73 1.76
1.86 1.97 1.95 1.92 1.89 1.84 1.72 1.63 1.59 1.60 1.59 1.56 1.48 1.39 1.36 1.40 1.42 1.43 1.46 1.48 1.49 1.50 1.52 1.53 1.55 1.57 1.59 1.59 1.60 1.61 1.62 1.64 1.68 1.72 1.75 1.77 1.80 1.82 1.82 1.81 1.83 1.84 1.85 1.86 1.87 1.87 1.87 1.89 1.89 1.88 1.87 1.86 1.87 1.88 1.90 1.90 1.86 1.74 1.57 1.51 1.66 1.81 1.81 1.83 1.86 1.91 1.94 1.94 1.93 1.88 1.86 1.82 1.74 1.72 1.76 1.74 1.74 1.73 1.65 1.62 1.62 1.64 1.71 1.75 1.77
1.86 1.94 1.94 1.91 1.88 1.81 1.70 1.63 1.59 1.56 1.55 1.50 1.43 1.36 1.36 1.41 1.44 1.47 1.51 1.51 1.52 1.53 1.54 1.55 1.58 1.60 1.61 1.62 1.62 1.63 1.63 1.62 1.65 1.69 1.71 1.74 1.78 1.80 1.81 1.85 1.90 1.89 1.88 1.83 1.81 1.84 1.87 1.86 1.86 1.87 1.86 1.86 1.86 1.87 1.89 1.89 1.87 1.82 1.65 1.55 1.68 1.80 1.83 1.83 1.87 1.88 1.89 1.90 1.94 1.89 1.88 1.83 1.80 1.78 1.78 1.77 1.76 1.74 1.72 1.72 1.71 1.66 1.69 1.73 1.77
1.85 1.89 1.92 1.85 1.80 1.72 1.68 1.61 1.55 1.54 1.51 1.45 1.40 1.35 1.37 1.42 1.46 1.53 1.55 1.53 1.52 1.53 1.55 1.58 1.59 1.60 1.62 1.63 1.63 1.65 1.67 1.68 1.68 1.69 1.70 1.73 1.76 1.78 1.81 1.84 1.84 1.83 1.83 1.82 1.83 1.84 1.84 1.84 1.86 1.83 1.83 1.84 1.86 1.84 1.84 1.84 1.84 1.84 1.75 1.70 1.77 1.84 1.77 1.75 1.82 1.84 1.86 1.89 1.92 1.92 1.92 1.87 1.79 1.77 1.76 1.75 1.75 1.77 1.78 1.74 1.72 1.69 1.70 1.71 1.69
1.84 1.85 1.81 1.79 1.77 1.75 1.67 1.60 1.55 1.52 1.48 1.44 1.36 1.34 1.40 1.45 1.51 1.55 1.55 1.53 1.53 1.55 1.58 1.58 1.58 1.57 1.60 1.64 1.68 1.69 1.71 1.72 1.73 1.75 1.77 1.78 1.80 1.79 1.78 1.79 1.82 1.82 1.82 1.82 1.83 1.85 1.85 1.83 1.81 1.81 1.80 1.80 1.78 1.78 1.81 1.81 1.80 1.79 1.77 1.76 1.82 1.90 1.88 1.84 1.88 1.80 1.84 1.87 1.86 1.88 1.91 1.85 1.82 1.83 1.80 1.72 1.70 1.75 1.76 1.78 1.77 1.68 1.60 1.58 1.61
1.82 1.77 1.77 1.74 1.75 1.73 1.67 1.59 1.54 1.51 1.46 1.40 1.35 1.38 1.43 1.48 1.52 1.53 1.53 1.52 1.54 1.57 1.58 1.58 1.54 1.53 1.58 1.65 1.70 1.72 1.74 1.74 1.75 1.76 1.81 1.84 1.82 1.79 1.77 1.78 1.79 1.79 1.79 1.79 1.79 1.82 1.81 1.79 1.76 1.76 1.76 1.75 1.76 1.76 1.75 1.77 1.78 1.76 1.76 1.81 1.87 1.94 1.94 1.91 1.81 1.79 1.86 1.87 1.83 1.85 1.87 1.85 1.83 1.81 1.80 1.76 1.68 1.68 1.74 1.76 1.79 1.79 1.74 1.67 1.62
1.78 1.76 1.70 1.73 1.74 1.71 1.65 1.59 1.54 1.49 1.43 1.36 1.33 1.38 1.44 1.47 1.49 1.51 1.51 1.52 1.54 1.57 1.58 1.56 1.52 1.51 1.55 1.65 1.71 1.74 1.75 1.76 1.77 1.79 1.80 1.80 1.77 1.77 1.76 1.75 1.74 1.74 1.73 1.72 1.74 1.76 1.77 1.77 1.76 1.74 1.75 1.75 1.76 1.75 1.72 1.72 1.72 1.74 1.77 1.83 1.90 1.93 1.93 1.90 1.82 1.73 1.76 1.82 1.82 1.81 1.82 1.86 1.82 1.79 1.77 1.75 1.70 1.61 1.59 1.63 1.74 1.80 1.81 1.79 1.75
1.70 1.70 1.67 1.73 1.75 1.71 1.65 1.57 1.51 1.48 1.42 1.34 1.33 1.38 1.43 1.47 1.47 1.48 1.50 1.52 1.53 1.54 1.55 1.52 1.50 1.48 1.50 1.56 1.64 1.71 1.75 1.76 1.76 1.78 1.78 1.77 1.76 1.76 1.75 1.73 1.70 1.70 1.67 1.66 1.72 1.75 1.76 1.74 1.73 1.71 1.69 1.67 1.68 1.69 1.71 1.70 1.67 1.69 1.76 1.84 1.93 1.99 1.93 1.91 1.90 1.80 1.74 1.78 1.75 1.73 1.75 1.79 1.79 1.77 1.77 1.74 1.68 1.61 1.58 1.60 1.62 1.69 1.79 1.82 1.80
1.75 1.71 1.76 1.72 1.71 1.69 1.62 1.54 1.49 1.47 1.42 1.34 1.35 1.40 1.43 1.47 1.47 1.47 1.49 1.53 1.53 1.52 1.49 1.48 1.47 1.47 1.46 1.47 1.53 1.61 1.68 1.74 1.75 1.77 1.78 1.77 1.74 1.73 1.74 1.71 1.64 1.62 1.62 1.62 1.68 1.70 1.67 1.66 1.65 1.63 1.62 1.61 1.60 1.62 1.66 1.66 1.63 1.62 1.68 1.80 1.95 1.97 1.92 1.87 1.89 1.90 1.85 1.77 1.79 1.77 1.70 1.72 1.75 1.76 1.76 1.70 1.65 1.57 1.54 1.59 1.62 1.65 1.70 1.77 1.80
1.81 1.73 1.71 1.68 1.69 1.63 1.55 1.50 1.49 1.48 1.42 1.35 1.38 1.42 1.44 1.47 1.47 1.47 1.50 1.52 1.52 1.49 1.46 1.44 1.44 1.46 1.46 1.45 1.46 1.51 1.57 1.68 1.75 1.76 1.77 1.76 1.73 1.72 1.70 1.64 1.60 1.59 1.61 1.62 1.60 1.62 1.65 1.67 1.67 1.64 1.61 1.60 1.60 1.60 1.59 1.56 1.51 1.49 1.54 1.67 1.83 1.93 1.92 1.85 1.87 1.90 1.87 1.83 1.80 1.81 1.68 1.63 1.66 1.65 1.65 1.63 1.61 1.57 1.54 1.53 1.56 1.59 1.64 1.69 1.74
1.76 1.71 1.65 1.65 1.62 1.54 1.49 1.50 1.48 1.46 1.42 1.39 1.40 1.42 1.44 1.46 1.46 1.47 1.48 1.52 1.51 1.47 1.45 1.42 1.41 1.42 1.45 1.45 1.43 1.47 1.50 1.58 1.70 1.74 1.72 1.71 1.70 1.66 1.60 1.58 1.58 1.58 1.58 1.57 1.56 1.59 1.65 1.63 1.60 1.60 1.59 1.58 1.56 1.55 1.51 1.48 1.44 1.39 1.43 1.56 1.72 1.90 1.92 1.90 1.86 1.87 1.87 1.88 1.88 1.85 1.78 1.66 1.66 1.62 1.59 1.57 1.56 1.57 1.57 1.56 1.57 1.56 1.56 1.58 1.63
1.73 1.71 1.70 1.64 1.57 1.52 1.46 1.51 1.46 1.45 1.42 1.38 1.38 1.43 1.45 1.44 1.43 1.45 1.47 1.49 1.50 1.47 1.42 1.39 1.41 1.39 1.41 1.43 1.41 1.44 1.49 1.54 1.62 1.68 1.70 1.65 1.61 1.58 1.57 1.56 1.55 1.50 1.51 1.51 1.53 1.59 1.63 1.61 1.61 1.60 1.58 1.54 1.52 1.50 1.48 1.44 1.45 1.49 1.56 1.66 1.76 1.80 1.82 1.86 1.83 1.83 1.85 1.86 1.89 1.85 1.76 1.73 1.72 1.71 1.62 1.59 1.60 1.62 1.63 1.60 1.55 1.52 1.49 1.48 1.52
1.77 1.70 1.66 1.62 1.61 1.55 1.49 1.48 1.47 1.45 1.39 1.37 1.34 1.41 1.45 1.43 1.43 1.42 1.45 1.47 1.46 1.43 1.38 1.38 1.41 1.39 1.37 1.39 1.39 1.41 1.43 1.47 1.53 1.59 1.62 1.62 1.61 1.57 1.53 1.51 1.50 1.46 1.47 1.53 1.55 1.58 1.62 1.64 1.64 1.68 1.66 1.62 1.54 1.47 1.42 1.43 1.48 1.55 1.57 1.64 1.74 1.75 1.79 1.79 1.80 1.83 1.86 1.89 1.91 1.81 1.75 1.79 1.83 1.80 1.73 1.66 1.63 1.63 1.65 1.60 1.52 1.50 1.46 1.45 1.45
1.70 1.64 1.66 1.62 1.60 1.60 1.51 1.46 1.44 1.39 1.38 1.37 1.35 1.39 1.44 1.42 1.41 1.41 1.42 1.41 1.40 1.39 1.38 1.37 1.41 1.41 1.40 1.37 1.40 1.57 1.56 1.54 1.68 1.61 1.59 1.58 1.55 1.54 1.51 1.49 1.49 1.47 1.44 1.49 1.55 1.59 1.64 1.67 1.75 1.78 1.79 1.76 1.66 1.57 1.52 1.53 1.61 1.67 1.67 1.68 1.70 1.66 1.72 1.77 1.78 1.77 1.78 1.80 1.85 1.74 1.76 1.82 1.84 1.86 1.81 1.72 1.67 1.64 1.66 1.66 1.59 1.54 1.48 1.43 1.42
1.62 1.58 1.60 1.62 1.60 1.64 1.51 1.46 1.41 1.38 1.39 1.36 1.35 1.36 1.40 1.40 1.39 1.38 1.38 1.36 1.36 1.39 1.39 1.39 1.44 1.51 1.53 1.52 1.63 1.70 1.69 1.74 1.74 1.73 1.66 1.55 1.57 1.55 1.54 1.50 1.51 1.48 1.48 1.46 1.53 1.61 1.67 1.72 1.76 1.81 1.86 1.87 1.83 1.76 1.68 1.65 1.73 1.72 1.73 1.70 1.71 1.65 1.61 1.66 1.73 1.74 1.75 1.78 1.78 1.74 1.80 1.84 1.86 1.86 1.84 1.78 1.72 1.70 1.66 1.67 1.66 1.60 1.56 1.47 1.43
1.59 1.54 1.54 1.57 1.59 1.60 1.54 1.43 1.36 1.39 1.39 1.34 1.32 1.32 1.32 1.37 1.35 1.34 1.33 1.34 1.35 1.38 1.41 1.47 1.54 1.68 1.75 1.68 1.75 1.76 1.72 1.79 1.80 1.72 1.71 1.61 1.48 1.55 1.56 1.53 1.48 1.51 1.50 1.57 1.57 1.65 1.68 1.73 1.79 1.79 1.83 1.81 1.76 1.79 1.76 1.73 1.69 1.76 1.77 1.77 1.71 1.68 1.66 1.64 1.62 1.67 1.77 1.75 1.68 1.72 1.81 1.84 1.85 1.87 1.84 1.80 1.77 1.76 1.74 1.72 1.70 1.67 1.64 1.57 1.50
1.60 1.52 1.48 1.60 1.64 1.62 1.53 1.47 1.37 1.37 1.37 1.35 1.34 1.28 1.29 1.35 1.32 1.31 1.34 1.34 1.34 1.39 1.48 1.55 1.64 1.78 1.81 1.74 1.78 1.78 1.77 1.69 1.79 1.65 1.57 1.50 1.47 1.54 1.55 1.54 1.53 1.51 1.56 1.60 1.69 1.71 1.77 1.79 1.85 1.89 1.88 1.95 1.91 1.86 1.91 1.85 1.71 1.70 1.77 1.71 1.73 1.70 1.67 1.58 1.54 1.56 1.68 1.73 1.61 1.64 1.76 1.83 1.83 1.87 1.88 1.82 1.80 1.79 1.78 1.75 1.74 1.69 1.65 1.62 1.56
1.58 1.60 1.55 1.58 1.58 1.56 1.50 1.46 1.39 1.39 1.38 1.36 1.35 1.25 1.26 1.32 1.30 1.32 1.34 1.36 1.36 1.38 1.55 1.72 1.77 1.81 1.84 1.77 1.76 1.77 1.70 1.72 1.62 1.62 1.70 1.73 1.71 1.68 1.64 1.70 1.72 1.68 1.77 1.80 1.80 1.85 1.81 1.82 1.91 1.98 2.00 2.01 1.94 1.88 1.85 1.82 1.78 1.69 1.62 1.54 1.67 1.60 1.68 1.66 1.53 1.54 1.61 1.66 1.58 1.62 1.66 1.74 1.80 1.83 1.87 1.86 1.82 1.77 1.77 1.78 1.76 1.67 1.67 1.64 1.56
1.59 1.55 1.58 1.62 1.63 1.55 1.50 1.47 1.40 1.41 1.39 1.36 1.35 1.32 1.24 1.23 1.27 1.32 1.37 1.42 1.48 1.45 1.57 1.76 1.78 1.82 1.86 1.74 1.79 1.77 1.79 1.77 1.67 1.67 1.79 1.80 1.86 1.90 1.80 1.84 1.90 1.88 1.94 1.96 1.86 1.89 1.86 1.80 1.89 1.95 1.89 1.86 1.91 1.83 1.89 1.83 1.69 1.62 1.47 1.46 1.49 1.52 1.62 1.54 1.53 1.54 1.52 1.53 1.51 1.55 1.60 1.67 1.72 1.78 1.81 1.86 1.85 1.82 1.78 1.80 1.79 1.78 1.75 1.70 1.65
1.61 1.56 1.62 1.66 1.69 1.59 1.54 1.49 1.39 1.41 1.43 1.42 1.43 1.39 1.28 1.27 1.32 1.35 1.43 1.47 1.54 1.57 1.63 1.74 1.76 1.88 1.86 1.92 1.76 1.78 1.80 1.79 1.75 1.74 1.78 1.83 1.86 1.80 1.80 1.89 1.85 1.79 1.89 1.94 1.88 1.84 1.82 1.72 1.78 1.79 1.91 1.85 1.83 1.76 1.81 1.74 1.68 1.55 1.42 1.36 1.41 1.44 1.42 1.51 1.37 1.47 1.47 1.42 1.42 1.38 1.48 1.58 1.66 1.71 1.77 1.83 1.84 1.84 1.80 1.78 1.80 1.81 1.78 1.76 1.72
1.59 1.58 1.60 1.68 1.73 1.64 1.62 1.55 1.45 1.41 1.41 1.45 1.45 1.43 1.34 1.36 1.39 1.46 1.50 1.55 1.61 1.64 1.67 1.68 1.77 1.79 1.78 1.78 1.79 1.74 1.86 1.84 1.77 1.78 1.78 1.79 1.87 1.81 1.81 1.81 1.89 1.91 1.93 1.87 1.82 1.86 1.81 1.74 1.72 1.78 1.80 1.85 1.75 1.76 1.72 1.75 1.75 1.61 1.47 1.40 1.41 1.37 1.41 1.48 1.32 1.35 1.50 1.48 1.48 1.44 1.39 1.51 1.63 1.68 1.71 1.76 1.81 1.81 1.80 1.79 1.78 1.78 1.75 1.77 1.75
1.50 1.58 1.65 1.66 1.72 1.71 1.71 1.65 1.54 1.47 1.44 1.50 1.49 1.53 1.45 1.45 1.52 1.53 1.51 1.64 1.69 1.76 1.82 1.80 1.71 1.82 1.77 1.79 1.87 1.82 1.93 1.94 1.82 1.82 1.77 1.78 1.79 1.81 1.80 1.83 1.86 1.90 1.96 1.83 1.87 1.87 1.84 1.76 1.79 1.85 1.82 1.83 1.81 1.68 1.73 1.78 1.76 1.63 1.51 1.47 1.41 1.30 1.26 1.31 1.33 1.37 1.49 1.53 1.60 1.51 1.39 1.47 1.60 1.68 1.69 1.70 1.74 1.78 1.78 1.77 1.78 1.76 1.76 1.74 1.77
1.50 1.59 1.64 1.71 1.71 1.74 1.73 1.68 1.59 1.56 1.57 1.54 1.60 1.61 1.54 1.51 1.58 1.56 1.54 1.65 1.66 1.79 1.82 1.78 1.77 1.80 1.81 1.77 1.78 1.84 1.88 1.79 1.80 1.82 1.81 1.81 1.77 1.80 1.86 1.79 1.85 1.85 1.90 1.87 1.86 1.89 1.74 1.86 1.82 1.86 1.80 1.74 1.79 1.65 1.73 1.81 1.72 1.68 1.53 1.44 1.41 1.36 1.37 1.30 1.39 1.41 1.49 1.61 1.55 1.55 1.34 1.37 1.53 1.69 1.72 1.68 1.68 1.75 1.78 1.76 1.76 1.76 1.77 1.76 1.75
1.54 1.57 1.67 1.67 1.71 1.73 1.71 1.76 1.62 1.60 1.63 1.55 1.59 1.59 1.59 1.55 1.62 1.62 1.59 1.60 1.62 1.75 1.75 1.72 1.77 1.79 1.77 1.76 1.76 1.86 1.83 1.82 1.82 1.79 1.81 1.75 1.72 1.73 1.88 1.84 1.85 1.84 1.87 1.81 1.85 1.86 1.86 1.79 1.74 1.72 1.70 1.74 1.72 1.86 1.65 1.78 1.75 1.67 1.57 1.47 1.36 1.37 1.39 1.34 1.38 1.40 1.47 1.52 1.58 1.61 1.50 1.30 1.45 1.58 1.71 1.70 1.69 1.68 1.76 1.75 1.75 1.74 1.75 1.76 1.78
1.53 1.58 1.61 1.67 1.70 1.64 1.71 1.71 1.75 1.65 1.59 1.58 1.59 1.60 1.60 1.57 1.63 1.63 1.60 1.61 1.63 1.64 1.77 1.72 1.76 1.87 1.85 1.74 1.71 1.71 1.84 1.82 1.82 1.80 1.79 1.74 1.75 1.77 1.80 1.77 1.80 1.83 1.90 1.89 1.85 1.87 1.80 1.80 1.82 1.73 1.72 1.90 1.73 1.67 1.71 1.65 1.61 1.63 1.53 1.48 1.37 1.31 1.28 1.25 1.31 1.30 1.37 1.48 1.59 1.63 1.73 1.64 1.49 1.56 1.63 1.67 1.69 1.68 1.72 1.75 1.75 1.73 1.75 1.74 1.76
1.52 1.57 1.61 1.67 1.64 1.67 1.70 1.67 1.73 1.62 1.56 1.55 1.59 1.59 1.62 1.58 1.63 1.61 1.59 1.62 1.61 1.61 1.69 1.73 1.78 1.83 1.85 1.75 1.68 1.62 1.72 1.78 1.80 1.75 1.76 1.74 1.77 1.75 1.79 1.71 1.77 1.85 1.90 1.82 1.93 1.89 1.88 1.85 1.87 1.82 1.80 1.91 1.81 1.77 1.75 1.69 1.60 1.54 1.62 1.48 1.34 1.34 1.27 1.29 1.32 1.32 1.35 1.53 1.63 1.67 1.73 1.68 1.66 1.65 1.62 1.64 1.68 1.71 1.73 1.75 1.75 1.76 1.75 1.73 1.73
1.48 1.59 1.58 1.58 1.67 1.68 1.69 1.69 1.67 1.59 1.56 1.55 1.59 1.59 1.61 1.58 1.61 1.62 1.60 1.62 1.59 1.58 1.64 1.72 1.79 1.77 1.84 1.78 1.70 1.63 1.58 1.70 1.71 1.70 1.73 1.77 1.80 1.79 1.80 1.82 1.85 1.88 1.91 1.86 1.84 1.86 1.84 1.79 1.74 1.82 1.79 1.80 1.71 1.78 1.74 1.63 1.51 1.52 1.50 1.38 1.37 1.35 1.32 1.27 1.17 1.30 1.35 1.57 1.53 1.64 1.79 1.81 1.77 1.71 1.66 1.66 1.65 1.67 1.70 1.75 1.77 1.77 1.75 1.72 1.72
1.50 1.54 1.54 1.56 1.62 1.57 1.60 1.68 1.64 1.58 1.54 1.54 1.55 1.59 1.60 1.57 1.56 1.58 1.59 1.59 1.60 1.57 1.62 1.67 1.70 1.76 1.78 1.76 1.70 1.64 1.57 1.62 1.68 1.65 1.67 1.77 1.78 1.79 1.78 1.83 1.83 1.85 1.88 1.80 1.80 1.89 1.88 1.86 1.80 1.78 1.83 1.80 1.73 1.80 1.73 1.63 1.47 1.38 1.42 1.39 1.36 1.29 1.26 1.14 1.11 1.18 1.32 1.48 1.57 1.62 1.73 1.82 1.83 1.75 1.73 1.70 1.69 1.66 1.67 1.71 1.75 1.76 1.73 1.70 1.72
1.46 1.49 1.53 1.57 1.56 1.57 1.62 1.60 1.63 1.60 1.53 1.51 1.55 1.58 1.58 1.58 1.55 1.57 1.58 1.59 1.59 1.57 1.61 1.64 1.67 1.70 1.74 1.75 1.69 1.64 1.59 1.59 1.63 1.70 1.63 1.76 1.79 1.83 1.89 1.92 1.91 1.95 1.85 1.82 1.83 1.92 1.87 1.78 1.83 1.84 1.71 1.73 1.76 1.72 1.66 1.54 1.43 1.44 1.45 1.40 1.35 1.29 1.05 1.01 1.19 1.16 1.28 1.40 1.53 1.69 1.76 1.73 1.78 1.77 1.77 1.75 1.72 1.70 1.68 1.70 1.71 1.73 1.70 1.71 1.72
1.44 1.45 1.47 1.51 1.51 1.55 1.57 1.60 1.58 1.60 1.55 1.52 1.54 1.55 1.57 1.57 1.55 1.55 1.56 1.57 1.56 1.58 1.60 1.64 1.66 1.65 1.68 1.68 1.65 1.61 1.57 1.58 1.60 1.62 1.62 1.71 1.77 1.84 1.92 1.92 1.93 1.84 1.83 1.81 1.77 1.92 1.82 1.77 1.73 1.79 1.80 1.70 1.68 1.60 1.55 1.51 1.44 1.44 1.39 1.44 1.29 1.21 1.10 1.12 1.25 1.22 1.29 1.39 1.50 1.60 1.68 1.61 1.63 1.75 1.79 1.80 1.72 1.69 1.66 1.63 1.62 1.66 1.69 1.72 1.72
1.40 1.41 1.45 1.45 1.44 1.50 1.51 1.56 1.61 1.62 1.57 1.51 1.50 1.52 1.53 1.55 1.53 1.54 1.58 1.56 1.55 1.58 1.59 1.62 1.60 1.62 1.61 1.63 1.63 1.59 1.53 1.53 1.52 1.56 1.54 1.64 1.75 1.82 1.88 1.93 1.98 1.84 1.86 1.81 1.86 1.94 1.91 1.85 1.68 1.72 1.74 1.67 1.60 1.56 1.45 1.37 1.32 1.33 1.38 1.37 1.26 1.20 1.03 1.08 1.20 1.26 1.29 1.35 1.46 1.49 1.61 1.69 1.69 1.70 1.75 1.79 1.73 1.68 1.65 1.59 1.56 1.60 1.64 1.67 1.67
1.37 1.39 1.41 1.45 1.47 1.48 1.49 1.54 1.58 1.58 1.57 1.53 1.51 1.52 1.53 1.53 1.53 1.53 1.54 1.55 1.54 1.56 1.59 1.57 1.61 1.62 1.60 1.63 1.59 1.59 1.55 1.48 1.47 1.51 1.50 1.58 1.67 1.79 1.81 1.92 1.92 1.85 1.86 1.83 1.90 1.86 1.79 1.83 1.68 1.61 1.65 1.67 1.48 1.39 1.22 1.26 1.20 1.31 1.26 1.27 1.26 1.24 1.12 1.07 1.11 1.26 1.29 1.33 1.43 1.45 1.59 1.50 1.51 1.52 1.78 1.80 1.79 1.72 1.67 1.65 1.70 1.71 1.73 1.72 1.71
1.34 1.35 1.36 1.37 1.39 1.43 1.44 1.50 1.54 1.56 1.58 1.54 1.50 1.47 1.47 1.43 1.39 1.46 1.46 1.47 1.51 1.49 1.55 1.56 1.59 1.63 1.61 1.65 1.60 1.60 1.60 1.51 1.47 1.50 1.50 1.54 1.59 1.74 1.78 1.86 1.87 1.85 1.79 1.74 1.80 1.78 1.80 1.72 1.62 1.58 1.55 1.55 1.51 1.43 1.27 1.22 1.09 1.22 1.15 1.17 1.31 1.18 1.13 1.01 1.08 1.13 1.26 1.31 1.31 1.40 1.43 1.57 1.48 1.54 1.52 1.61 1.72 1.72 1.69 1.70 1.73 1.81 1.76 1.71 1.70
1.33 1.33 1.30 1.28 1.29 1.31 1.34 1.35 1.45 1.55 1.53 1.47 1.41 1.37 1.32 1.33 1.36 1.34 1.32 1.38 1.43 1.44 1.48 1.53 1.53 1.57 1.60 1.62 1.62 1.63 1.62 1.57 1.53 1.52 1.50 1.54 1.59 1.73 1.82 1.80 1.84 1.82 1.82 1.76 1.81 1.77 1.82 1.69 1.68 1.62 1.53 1.48 1.35 1.11 1.04 1.19 0.98 1.03 1.17 1.16 1.12 1.14 1.04 1.02 1.09 1.19 1.24 1.31 1.27 1.36 1.40 1.36 1.39 1.37 1.41 1.41 1.49 1.58 1.60 1.66 1.70 1.72 1.75 1.64 1.65
1.27 1.29 1.26 1.22 1.24 1.28 1.27 1.30 1.39 1.46 1.48 1.44 1.38 1.34 1.34 1.33 1.28 1.27 1.33 1.37 1.36 1.36 1.37 1.46 1.51 1.54 1.57 1.60 1.63 1.61 1.61 1.61 1.58 1.55 1.54 1.55 1.56 1.67 1.80 1.75 1.76 1.79 1.87 1.80 1.81 1.70 1.71 1.64 1.63 1.60 1.67 1.55 1.32 1.21 1.03 1.20 1.02 0.94 0.89 0.94 1.08 1.17 1.05 1.05 1.11 1.20 1.32 1.36 1.33 1.37 1.36 1.29 1.25 1.23 1.28 1.28 1.29 1.39 1.45 1.56 1.62 1.63 1.64 1.63 1.65
1.29 1.26 1.30 1.27 1.23 1.27 1.27 1.27 1.31 1.34 1.39 1.43 1.37 1.31 1.36 1.39 1.34 1.32 1.33 1.34 1.42 1.41 1.40 1.41 1.53 1.54 1.56 1.57 1.60 1.61 1.59 1.59 1.60 1.59 1.55 1.56 1.62 1.65 1.81 1.81 1.77 1.84 1.80 1.71 1.77 1.82 1.73 1.66 1.60 1.56 1.61 1.52 1.37 1.27 1.07 1.24 1.14 1.10 1.09 0.95 0.88 0.80 0.93 1.08 1.13 1.19 1.30 1.34 1.37 1.32 1.25 1.20 1.17 1.21 1.23 1.21 1.25 1.31 1.35 1.35 1.38 1.38 1.41 1.48 1.52
1.31 1.29 1.27 1.25 1.24 1.27 1.28 1.26 1.28 1.29 1.31 1.36 1.36 1.36 1.35 1.37 1.39 1.38 1.36 1.34 1.31 1.36 1.36 1.42 1.43 1.50 1.50 1.57 1.57 1.56 1.57 1.56 1.58 1.56 1.54 1.56 1.64 1.72 1.75 1.78 1.78 1.82 1.77 1.72 1.67 1.69 1.65 1.66 1.63 1.56 1.60 1.50 1.33 1.12 1.15 1.22 1.23 1.12 0.95 1.00 0.96 0.89 0.79 0.87 1.01 1.10 1.24 1.27 1.29 1.28 1.25 1.16 1.07 1.11 1.24 1.20 1.19 1.16 1.20 1.30 1.30 1.28 1.28 1.32 1.36
1.32 1.28 1.26 1.22 1.19 1.22 1.26 1.23 1.26 1.26 1.27 1.29 1.32 1.34 1.34 1.31 1.33 1.36 1.35 1.32 1.36 1.33 1.28 1.29 1.35 1.41 1.44 1.49 1.53 1.55 1.52 1.51 1.54 1.54 1.52 1.52 1.65 1.73 1.76 1.73 1.79 1.77 1.71 1.72 1.66 1.72 1.73 1.72 1.62 1.52 1.52 1.42 1.26 1.02 1.06 1.13 1.18 1.23 1.18 1.04 0.98 0.92 0.85 0.84 1.05 1.07 1.20 1.17 1.18 1.23 1.25 1.25 1.23 1.23 1.18 1.14 1.23 1.35 1.33 1.33 1.31 1.30 1.34 1.32 1.29
1.32 1.32 1.31 1.27 1.22 1.20 1.25 1.23 1.25 1.28 1.26 1.27 1.28 1.27 1.23 1.17 1.16 1.12 1.08 1.08 1.11 1.14 1.09 1.09 1.19 1.27 1.30 1.43 1.51 1.54 1.52 1.48 1.50 1.50 1.51 1.53 1.67 1.72 1.76 1.71 1.71 1.79 1.68 1.68 1.74 1.75 1.75 1.68 1.60 1.53 1.50 1.47 1.38 1.13 1.04 1.10 1.17 1.22 1.27 1.29 1.22 1.06 0.98 0.94 1.01 0.83 1.16 1.16 1.21 1.18 1.17 1.25 1.31 1.25 1.27 1.22 1.32 1.28 1.30 1.26 1.33 1.38 1.43 1.47 1.40
1.35 1.38 1.36 1.33 1.28 1.23 1.24 1.23 1.21 1.23 1.28 1.27 1.28 1.24 1.17 1.14 1.11 1.05 1.02 0.97 0.97 1.06 1.19 1.23 1.21 1.26 1.29 1.36 1.44 1.52 1.53 1.51 1.49 1.47 1.45 1.51 1.63 1.75 1.74 1.71 1.73 1.71 1.72 1.67 1.71 1.71 1.73 1.68 1.69 1.55 1.56 1.48 1.35 1.15 1.07 1.12 1.09 1.11 1.23 1.28 1.27 1.32 1.23 1.02 0.98 0.99 0.93 1.10 1.23 1.18 1.13 1.25 1.22 1.20 1.26 1.23 1.29 1.26 1.30 1.35 1.35 1.36 1.36 1.38 1.39
1.41 1.39 1.37 1.36 1.30 1.23 1.21 1.21 1.22 1.23 1.25 1.28 1.24 1.26 1.16 1.14 1.11 1.08 1.08 1.02 0.97 1.01 1.12 1.22 1.28 1.32 1.31 1.34 1.43 1.47 1.49 1.52 1.51 1.46 1.43 1.46 1.57 1.74 1.77 1.67 1.65 1.67 1.70 1.71 1.69 1.74 1.73 1.73 1.68 1.58 1.59 1.50 1.32 1.23 1.05 1.13 0.94 0.95 1.17 1.19 1.23 1.25 1.22 1.14 1.19 1.06 0.99 0.94 1.04 1.20 1.17 1.23 1.24 1.25 1.26 1.27 1.30 1.29 1.34 1.40 1.39 1.30 1.37 1.39 1.38
1.49 1.41 1.34 1.32 1.32 1.27 1.22 1.20 1.19 1.18 1.22 1.27 1.23 1.24 1.23 1.16 1.13 1.10 1.06 1.07 1.07 1.09 1.17 1.24 1.24 1.29 1.28 1.30 1.34 1.38 1.45 1.47 1.47 1.45 1.44 1.44 1.51 1.63 1.74 1.74 1.66 1.65 1.65 1.73 1.74 1.71 1.72 1.71 1.62 1.59 1.52 1.45 1.38 1.29 1.11 1.15 0.97 0.89 1.05 1.02 1.18 1.15 1.16 1.23 1.25 1.16 1.03 0.98 1.01 1.04 1.11 1.18 1.19 1.24 1.17 1.26 1.30 1.35 1.36 1.33 1.35 1.32 1.36 1.34 1.40
1.52 1.54 1.42 1.33 1.30 1.29 1.22 1.18 1.14 1.16 1.19 1.25 1.22 1.20 1.21 1.19 1.11 1.08 1.04 1.05 1.09 1.11 1.16 1.16 1.17 1.20 1.21 1.24 1.25 1.32 1.38 1.43 1.45 1.45 1.43 1.44 1.46 1.52 1.65 1.75 1.70 1.66 1.65 1.64 1.71 1.77 1.73 1.70 1.67 1.60 1.53 1.43 1.38 1.31 1.08 1.21 1.16 1.23 1.14 0.99 1.07 1.02 1.08 1.11 1.15 1.13 1.15 1.17 1.02 1.00 1.11 1.09 1.02 1.14 1.21 1.26 1.28 1.30 1.32 1.34 1.33 1.34 1.31 1.34 1.34
1.54 1.62 1.49 1.35 1.30 1.26 1.23 1.15 1.14 1.16 1.18 1.18 1.19 1.16 1.17 1.16 1.10 1.08 1.03 1.02 1.06 1.08 1.08 1.11 1.12 1.11 1.08 1.16 1.19 1.27 1.31 1.35 1.44 1.43 1.40 1.41 1.43 1.48 1.53 1.61 1.71 1.71 1.69 1.64 1.64 1.72 1.83 1.78 1.71 1.69 1.58 1.49 1.39 1.32 1.19 1.18 1.16 1.29 1.22 1.12 1.07 1.09 1.03 0.96 1.09 1.05 1.12 1.08 1.07 1.06 1.11 1.15 1.08 1.10 1.19 1.19 1.28 1.33 1.32 1.33 1.21 1.28 1.37 1.37 1.39
Wind_Speed
18 18 19 19 19 18 19 18 18 18 17 17 17 16 16 15 14 14 14 14 13 13 13 13 13 13 13 13 13 13 13 13 13 13 13 13 12 12 12 11 11 11 10 9 9 8 8 8 8 9 9 9 9 8 8 8 8 8 8 8 7 8 8 7 7 7 7 7 6 6 6 5 5 5 5 4 4 4 4 5 5 6 5 5 6
19 19 19 18 18 18 18 18 18 18 17 17 16 16 15 15 14 14 13 13 13 13 13 13 13 13 13 13 13 13 13 13 13 13 12 12 12 11 11 11 11 10 10 10 9 9 9 9 9 9 9 9 9 9 9 8 8 8 8 8 8 8 8 8 8 8 8 8 7 7 6 6 5 5 5 4 4 4 4 5 5 6 6 6 6
19 19 19 18 18 18 18 18 18 17 17 16 16 15 15 14 14 13 13 13 13 13 13 13 12 12 13 13 13 13 13 13 13 12 12 12 12 11 11 11 11 10 10 10 9 9 9 9 9 9 9 9 9 9 9 8 8 8 8 8 8 8 8 8 8 9 8 8 8 7 6 6 6 6 5 5 4 4 5 5 6 6 6 7 7
19 19 18 18 18 18 18 18 17 17 16 16 15 15 15 14 13 13 13 13 13 13 13 12 12 12 12 12 12 12 12 12 12 12 12 12 11 11 11 11 11 10 10 10 10 9 9 9 9 9 9 9 9 9 8 8 8 9 8 8 8 8 8 8 9 8 8 8 8 7 7 7 6 6 5 5 5 5 6 6 6 7 7 7 8
19 18 18 18 18 18 18 17 17 16 16 16 15 15 14 13 13 13 13 13 13 13 13 12 12 12 12 12 12 12 12 12 12 12 12 11 11 11 11 11 10 10 10 10 10 10 10 9 9 9 9 9 8 8 8 8 8 9 9 8 8 8 8 8 8 8 8 8 7 7 7 7 7 6 6 6 6 6 6 7 7 7 8 8 8
18 18 18 18 18 18 17 17 17 16 16 15 15 14 14 13 13 13 13 13 13 13 13 12 12 12 12 12 12 12 12 12 12 12 12 11 11 11 11 11 10 10 10 10 10 10 10 10 9 9 9 9 8 8 8 8 8 8 8 8 8 8 8 8 8 8 8 7 8 8 8 7 7 7 7 7 7 7 7 8 8 8 8 9 9
19 18 18 18 18 18 17 17 16 16 15 15 15 14 14 14 13 13 13 13 13 13 13 13 12 12 12 12 12 12 12 12 12 12 12 12 11 11 11 11 11 10 10 10 10 10 10 10 10 9 9 9 8 8 8 8 8 8 8 8 8 8 8 7 7 7 7 7 8 8 8 8 8 8 8 8 8 8 8 8 9 9 9 9 9
19 18 18 18 18 18 17 16 16 15 15 15 14 14 14 14 14 14 14 14 14 14 13 13 12 12 12 12 12 12 12 12 12 12 12 12 12 12 11 11 11 11 11 11 10 11 11 10 10 10 9 9 9 9 8 8 8 8 8 8 8 8 8 7 7 7 7 7 8 8 8 8 9 9 9 9 9 9 9 9 9 9 9 10 10
18 18 18 18 18 18 17 16 16 15 15 15 14 14 14 14 14 14 14 14 14 14 13 13 13 12 12 12 12 12 12 12 12 12 12 12 12 12 12 12 11 11 11 11 11 11 11 11 10 10 10 9 9 9 8 8 8 8 8 8 8 9 8 8 8 7 7 7 8 8 8 9 9 9 9 9 9 9 9 9 9 9 9 10 9
18 18 18 17 18 17 16 16 15 15 15 15 14 14 15 14 14 14 15 15 14 14 13 13 13 13 12 12 12 12 12 12 12 12 12 12 12 12 12 12 12 11 11 11 11 11 11 11 11 10 10 10 9 9 9 8 8 8 8 8 8 9 9 8 8 8 7 7 8 8 8 9 9 9 9 9 9 9 9 9 9 9 9 10 9
18 17 17 17 17 16 16 15 15 15 15 15 14 15 15 15 15 15 15 15 14 14 13 13 13 13 13 13 13 13 12 12 12 12 12 12 12 12 12 12 12 12 11 11 11 11 11 11 11 11 11 10 10 9 9 9 9 8 8 8 8 8 9 9 8 8 8 7 8 8 8 9 9 9 9 9 9 9 9 9 9 9 9 9 9
17 17 17 17 17 16 15 15 15 15 15 15 14 15 15 15 15 15 15 14 14 14 14 13 13 13 13 13 13 12 12 12 12 12 12 12 12 12 12 12 12 12 12 12 12 12 12 12 12 12 11 11 10 10 9 9 9 9 9 9 9 8 8 8 8 8 8 8 7 7 8 8 8 8 9 9 9 9 9 9 9 9 9 9 9
17 17 17 17 17 16 15 15 15 15 15 15 15 15 15 15 15 15 15 14 14 14 14 14 13 13 13 13 12 12 12 11 11 11 11 11 12 12 12 12 12 12 12 12 12 13 13 13 13 12 12 12 11 11 10 10 10 9 9 9 9 9 9 9 9 8 8 8 8 7 7 8 8 8 9 9 9 9 9 9 9 8 9 9 9
17 17 17 17 16 15 15 15 15 15 15 15 15 15 15 15 15 15 14 14 14 14 14 14 13 13 13 12 12 12 12 11 11 11 11 11 11 12 12 12 12 12 12 13 13 13 13 13 13 12 12 12 12 11 11 11 10 10 10 9 9 9 9 8 9 8 8 8 7 7 7 7 7 7 8 8 8 9 9 8 8 8 8 8 8
16 16 16 16 16 15 15 15 15 15 15 15 15 15 15 15 15 14 14 14 14 14 14 13 13 13 12 12 12 12 12 12 12 12 12 12 12 12 12 12 12 12 13 13 13 13 13 13 12 12 12 12 12 12 12 11 11 11 10 10 9 9 9 8 8 8 9 8 8 7 7 7 7 7 7 7 7 8 8 8 8 8 8 8 7
16 16 16 16 16 15 15 14 14 14 14 15 15 15 15 15 15 14 14 14 14 13 13 13 12 12 12 12 12 12 12 12 12 12 12 12 12 12 12 12 12 13 13 13 13 13 13 12 12 12 12 12 12 11 11 11 11 11 10 10 10 10 9 9 9 8 8 8 8 7 7 7 6 6 6 6 6 7 7 7 7 7 7 7 7
16 16 15 15 15 15 14 14 14 14 14 15 15 15 15 15 14 14 13 13 13 13 12 12 12 11 12 11 12 12 12 12 12 12 12 12 12 12 12 12 12 12 12 12 12 12 12 12 12 12 11 11 11 11 11 11 11 11 10 10 10 10 10 9 9 9 8 8 7 7 7 6 6 6 6 6 6 6 6 6 6 6 6 6 6
15 15 15 15 15 15 14 14 14 14 14 14 15 15 15 14 14 13 13 13 13 12 11 11 11 11 11 11 11 12 12 12 12 12 12 12 12 12 12 12 12 12 12 12 12 12 12 12 12 12 11 11 11 11 11 11 11 10 10 10 10 10 10 9 9 8 8 7 7 7 7 6 6 6 6 6 6 6 6 6 6 6 5 5 5
15 15 15 15 15 15 15 15 14 14 14 14 15 15 15 14 14 13 13 12 12 11 11 11 11 11 11 11 11 11 12 12 11 11 11 11 11 11 11 11 11 11 11 11 11 11 11 11 11 11 11 11 11 10 10 10 10 10 10 10 10 10 10 9 9 8 8 7 7 7 7 6 6 6 6 6 6 6 6 6 6 5 5 5 5
14 15 15 15 15 15 15 15 15 14 14 15 15 15 14 14 13 13 12 12 11 11 11 10 11 11 11 11 11 11 11 11 11 11 11 11 11 11 11 10 10 10 10 10 10 10 10 10 10 11 11 11 10 10 10 10 10 10 10 10 10 9 9 10 9 8 8 7 7 7 7 7 7 6 6 6 6 6 6 5 5 5 5 5 4
14 15 15 15 15 14 15 15 15 15 15 15 15 15 14 14 13 13 12 11 11 11 10 10 10 10 10 10 10 10 10 10 11 10 10 10 10 10 10 10 9 9 9 9 9 9 9 9 9 10 10 10 9 9 9 10 10 10 10 10 9 9 9 9 9 8 8 7 7 7 7 7 7 6 6 6 5 5 5 5 5 5 5 5 5
14 15 15 15 15 14 15 15 15 15 15 15 15 15 15 14 13 12 12 11 11 10 10 10 10 10 10 10 9 9 9 9 9 9 9 9 9 9 9 9 9 9 9 9 9 8 8 9 9 9 9 9 8 8 8 9 9 9 9 9 9 9 9 8 8 8 8 7 7 7 7 7 7 7 6 6 5 5 5 5 4 4 4 4 4
15 15 15 15 15 14 15 15 15 16 16 15 15 15 15 14 13 12 12 11 11 10 10 9 9 9 9 9 8 8 9 9 8 8 8 9 9 9 9 8 8 8 8 8 8 7 8 8 8 8 8 8 8 7 8 8 8 8 8 8 8 7 8 8 8 8 8 7 7 7 7 6 6 6 6 6 6 5 5 5 4 4 4 4 4
15 15 14 15 15 15 15 15 16 17 16 15 15 15 15 14 13 12 12 11 10 10 9 9 8 8 8 8 8 8 8 8 8 8 8 8 8 8 8 7 7 7 7 7 7 7 7 7 7 7 7 7 7 7 7 8 8 8 8 7 7 6 7 8 8 8 7 7 7 6 6 6 6 6 6 6 6 6 5 5 5 4 4 4 4
14 14 15 15 15 15 15 16 17 17 16 15 15 15 15 14 13 12 11 11 10 10 9 8 8 8 8 8 8 8 8 7 7 8 7 7 7 7 7 6 6 6 6 6 6 6 6 6 6 6 6 7 7 7 6 7 7 7 7 7 7 6 6 7 8 8 7 7 7 6 6 6 6 5 5 6 6 6 6 5 5 4 4 4 4
14 14 15 15 15 16 16 16 17 17 16 16 15 15 15 14 13 12 12 11 10 9 9 8 8 8 8 7 7 7 7 7 7 7 6 6 6 6 6 5 5 5 5 5 5 5 6 6 6 6 6 6 6 6 6 6 7 7 7 6 7 7 6 7 8 7 7 7 6 6 6 5 5 5 5 5 5 6 6 6 5 5 5 4 4
15 15 15 15 16 16 16 17 17 17 17 16 15 15 15 14 13 13 12 11 10 9 8 8 8 7 7 7 7 7 7 6 7 6 6 6 6 5 5 5 5 5 5 5 5 5 5 6 6 6 6 6 6 6 6 6 6 6 7 7 6 6 6 6 7 7 7 7 6 6 5 5 5 5 5 5 5 5 5 5 5 5 5 4 4
15 16 16 16 16 16 17 18 18 17 17 16 15 15 15 14 13 13 12 11 10 9 8 8 7 7 7 7 7 7 7 6 6 6 6 5 5 5 5 5 5 5 4 5 5 5 5 5 5 6 6 6 6 6 6 5 6 6 6 6 6 6 6 6 6 6 7 6 6 6 5 5 4 4 4 4 4 4 4 5 5 5 4 4 4
16 16 16 17 17 17 17 18 18 18 17 16 15 15 15 14 13 13 12 11 10 9 8 7 7 7 7 7 7 6 6 6 6 6 5 5 5 5 5 5 5 5 5 5 5 5 5 5 5 5 5 5 5 5 5 5 5 5 5 5 5 5 5 5 5 5 6 7 6 6 6 5 4 4 4 4 4 4 4 4 4 4 4 4 4
17 17 17 17 17 17 18 18 19 18 17 17 15 15 15 14 13 13 12 11 10 9 8 8 7 7 7 7 7 6 6 6 6 6 5 5 4 4 5 5 4 5 5 5 5 5 5 5 5 5 5 5 5 5 5 5 4 4 4 4 5 4 3 4 4 5 6 6 6 6 6 5 4 4 4 4 4 3 3 4 4 4 4 4 3
17 17 17 17 18 18 18 19 19 18 18 17 16 15 15 14 13 13 12 11 10 9 9 8 8 7 7 7 7 7 6 6 6 6 5 4 4 4 5 4 4 4 4 4 5 5 5 5 5 5 5 5 5 5 5 5 4 4 4 4 5 4 4 4 4 4 5 5 5 5 5 5 4 4 4 4 4 4 4 3 3 3 3 3 3
17 18 18 18 18 19 19 19 19 19 18 17 16 15 15 15 14 13 12 11 11 10 9 8 8 7 7 7 7 7 6 6 6 5 5 4 4 4 4 4 4 4 4 4 4 4 5 5 5 5 5 5 5 5 5 5 4 4 4 4 4 4 5 5 4 4 4 5 5 5 5 5 4 4 3 3 3 4 3 3 3 3 3 3 3
17 17 18 19 19 19 20 20 19 19 18 17 16 16 15 15 14 13 12 11 11 10 9 9 8 8 7 7 7 7 6 6 5 5 5 4 4 4 4 4 4 4 4 4 4 4 5 5 5 5 6 6 5 6 5 5 5 4 4 3 3 3 3 5 4 4 5 5 5 5 5 4 4 4 3 3 3 3 3 3 3 3 3 2 2
17 18 19 19 20 20 20 20 19 20 19 18 17 16 15 15 14 13 12 12 11 10 10 9 9 8 8 8 7 7 6 6 5 5 4 4 4 3 3 3 4 4 4 5 5 5 5 5 5 5 5 6 6 6 5 5 5 4 4 3 3 3 3 3 3 4 6 6 5 4 4 4 4 4 4 3 3 3 2 2 2 2 2 2 2
17 18 19 19 20 20 20 20 20 20 20 18 17 17 16 15 14 13 13 12 11 11 10 10 9 9 8 8 7 7 6 6 5 5 4 4 3 3 3 3 4 4 5 5 5 5 5 5 5 5 5 6 5 6 6 5 5 5 4 3 3 4 3 3 2 3 5 5 5 5 4 4 4 4 4 3 3 2 2 2 2 1 1 1 1
18 19 19 19 20 21 20 20 20 20 20 19 18 17 16 15 15 14 13 12 12 11 10 10 9 9 8 8 8 7 7 6 5 5 4 4 3 3 3 3 3 4 5 5 5 5 5 5 5 5 6 6 6 6 5 5 6 5 5 4 4 4 4 4 3 3 3 3 4 4 3 3 3 3 4 3 3 2 2 2 2 1 1 1 1
19 19 19 20 20 21 21 21 21 21 20 20 18 18 17 16 15 14 13 13 12 11 11 10 10 9 9 8 8 7 7 6 6 5 4 4 3 3 3 3 3 4 4 4 5 5 5 6 6 6 6 7 6 6 5 5 5 5 5 4 5 5 4 4 4 3 3 3 3 4 4 4 3 3 3 3 3 2 2 2 2 1 1 1 1
19 20 20 20 20 21 21 21 21 21 20 20 19 18 17 16 15 14 14 13 12 12 11 10 10 9 9 8 8 7 7 7 6 5 5 4 3 3 3 3 3 4 4 4 5 5 5 6 6 7 7 7 7 6 6 5 5 5 5 4 5 6 4 3 4 4 3 4 4 3 3 4 3 3 3 3 3 3 2 2 2 2 1 1 1
20 21 21 21 21 21 21 21 21 21 20 20 19 18 17 16 16 15 14 13 13 12 11 11 10 9 9 9 8 8 7 7 6 6 5 4 3 3 3 3 3 3 4 4 4 5 5 6 6 7 8 8 8 7 7 6 6 6 6 6 5 7 5 4 4 4 3 4 4 3 3 3 4 3 3 2 2 3 3 2 2 2 2 1 1
20 21 21 22 21 21 22 21 21 21 20 20 20 19 18 17 16 15 14 14 13 13 12 11 10 10 9 9 9 8 7 7 6 6 5 4 3 3 3 2 3 3 3 4 4 4 5 6 6 7 7 8 8 8 7 7 7 7 7 7 6 7 6 4 4 4 4 4 4 4 3 4 4 3 3 2 2 3 3 3 2 2 2 2 2
21 21 22 22 23 22 23 22 22 22 21 20 20 19 17 17 17 16 15 14 14 13 12 11 11 10 10 10 9 8 8 7 7 6 5 4 4 3 3 2 2 2 3 4 4 4 5 5 6 7 7 8 8 8 8 8 8 7 8 8 7 7 6 5 4 4 4 5 5 4 3 4 4 4 3 3 3 3 3 3 3 2 2 2 2
21 22 22 23 23 23 23 23 22 22 21 21 20 19 18 17 17 16 15 15 14 14 13 12 11 10 10 10 9 8 8 7 7 6 5 5 4 3 3 2 2 2 3 3 3 4 4 4 5 6 6 7 8 8 9 9 9 8 8 8 7 7 6 5 5 5 5 5 5 4 4 4 5 5 4 4 4 3 3 3 3 3 3 2 3
22 22 22 23 24 23 23 24 23 23 22 21 20 19 18 18 17 17 16 15 14 14 14 13 12 11 11 11 10 9 8 8 7 6 5 5 4 4 3 2 2 2 2 3 3 3 3 4 4 5 6 7 8 8 8 8 8 8 8 8 8 8 7 6 5 6 6 6 5 4 4 5 5 5 5 6 5 4 3 2 3 3 3 3 3
23 23 23 23 24 24 24 24 23 23 23 22 21 20 19 18 17 17 16 15 14 14 13 13 13 12 11 11 10 10 9 8 7 7 6 5 5 4 3 3 2 2 2 2 2 2 3 3 4 5 5 6 7 8 8 8 8 8 8 8 8 8 7 6 6 6 6 6 5 4 5 5 5 6 6 6 5 4 3 3 3 3 3 3 3
23 24 24 24 24 24 24 25 24 23 23 22 22 21 20 19 18 17 17 15 14 14 14 13 13 12 12 11 11 10 10 9 8 7 7 6 5 5 4 3 3 2 2 2 2 2 2 2 3 4 5 5 6 7 7 7 8 8 8 8 8 8 7 6 6 6 6 5 5 5 5 5 5 5 4 4 5 4 4 4 4 4 4 3 3
24 24 25 24 25 25 25 25 24 24 23 23 22 21 20 20 19 18 17 16 15 15 15 14 13 13 12 12 11 11 10 9 9 8 7 6 6 5 5 4 3 2 2 2 2 2 2 2 3 3 4 4 5 5 6 6 7 7 7 8 8 8 7 7 7 7 7 6 5 5 5 5 5 4 3 3 3 4 4 4 4 4 4 4 4
24 24 25 25 25 25 26 26 25 24 24 24 23 22 21 20 20 19 18 18 17 15 15 14 14 13 13 12 12 11 10 10 9 9 8 7 6 6 5 5 4 3 2 2 2 2 1 2 2 2 2 3 4 4 5 6 6 6 6 7 7 8 8 7 7 7 7 6 6 5 4 4 5 4 3 3 3 3 4 4 4 5 4 4 4
24 24 25 25 25 26 26 26 26 25 24 24 24 23 21 21 20 19 19 18 18 16 15 15 14 13 13 13 12 12 11 11 10 9 9 8 7 6 6 5 4 4 3 3 3 2 2 1 1 1 1 2 2 3 4 5 5 5 6 6 7 8 8 8 7 7 7 6 6 6 5 4 4 4 4 3 3 3 4 4 4 5 4 4 4
24 24 24 25 26 26 27 27 26 26 25 24 24 23 22 21 21 20 19 18 18 17 16 15 14 14 13 13 13 12 11 11 11 10 10 9 8 7 6 6 5 5 4 4 3 3 3 2 2 1 0 1 1 2 3 3 4 5 5 6 6 7 7 8 8 7 7 6 6 5 5 5 4 4 5 5 4 3 4 4 4 4 4 4 4
24 24 24 25 26 26 27 27 27 26 26 25 24 24 23 22 21 21 20 19 18 17 17 16 15 14 14 13 13 13 12 12 11 11 11 10 9 8 7 6 6 6 5 5 4 4 4 3 3 3 2 1 1 1 1 2 3 4 4 4 5 6 6 6 7 6 6 6 5 5 4 4 4 4 4 4 4 4 4 4 4 4 4 4 3
24 25 25 25 26 26 27 28 27 27 26 26 25 24 23 22 22 22 21 20 19 18 17 16 16 15 15 14 13 13 13 13 12 11 11 11 10 10 9 7 7 6 6 6 6 5 5 5 4 4 3 3 2 1 1 0 2 3 3 3 3 4 5 5 5 5 5 6 5 5 4 3 4 4 3 4 4 4 4 4 4 3 3 3 3
Wind_Direction
138 136 134 132 132 130 128 128 127 125 124 123 123 122 121 118 115 112 109 107 106 104 103 102 100 100 99 98 97 98 98 99 99 98 96 96 97 98 99 99 98 96 94 91 89 86 86 87 87 87 87 87 85 84 81 78 76 75 74 75 81 84 84 89 94 98 102 107 110 111 113 114 115 117 120 126 132 142 150 148 146 144 142 138 135
139 137 135 133 133 131 129 129 128 126 124 123 123 122 121 118 115 112 110 108 106 105 103 102 101 101 99 98 97 98 98 99 99 98 96 96 96 97 97 97 95 93 91 89 87 86 86 87 88 87 87 86 84 82 80 78 75 74 75 77 83 86 86 90 95 98 100 102 104 104 105 107 109 112 114 119 126 137 145 146 148 147 145 142 137
138 138 136 134 133 132 131 130 129 126 124 123 123 122 121 118 115 113 111 109 107 106 105 103 102 101 99 98 97 98 99 99 98 97 96 95 95 96 95 94 93 91 89 88 86 85 85 87 89 89 88 85 82 80 78 76 73 72 75 79 84 89 89 91 95 98 99 98 99 98 99 101 105 108 109 112 116 125 132 135 139 144 146 144 139
139 138 137 135 134 134 133 131 129 127 124 123 123 123 121 118 116 114 111 109 108 107 106 105 103 101 100 98 98 98 99 99 98 97 96 95 94 95 94 93 92 89 87 87 86 85 85 87 89 90 89 86 82 79 77 73 70 69 72 78 83 89 91 92 95 97 98 97 96 95 96 98 99 100 104 108 111 116 123 126 128 134 140 141 140
139 139 137 137 136 135 135 132 130 128 125 124 124 123 121 119 117 114 112 110 109 109 107 105 103 102 100 100 99 99 99 98 97 97 96 94 94 94 93 92 91 88 86 85 84 84 84 87 89 89 88 85 82 79 76 72 69 69 71 77 82 87 91 92 94 95 96 96 94 93 94 94 94 95 100 105 108 114 118 121 123 126 131 135 137
140 139 138 138 137 136 135 133 131 128 126 125 125 124 122 119 117 115 112 111 110 109 107 105 103 102 101 101 100 100 98 98 97 97 96 94 93 93 92 91 90 88 86 85 84 83 83 85 87 88 87 85 83 80 76 72 70 71 72 76 81 86 91 92 92 94 95 94 94 94 92 89 90 93 97 100 104 110 115 117 121 122 124 128 131
140 140 139 139 138 137 136 134 132 129 126 126 126 125 122 120 118 115 113 111 110 109 107 105 104 103 102 102 101 100 98 97 97 97 96 94 93 92 91 91 90 88 87 85 85 84 83 83 84 85 86 85 82 80 77 73 72 74 75 76 81 85 87 88 90 94 94 93 94 94 90 85 87 92 95 97 99 105 111 114 118 119 122 125 126
141 140 140 139 139 138 137 136 133 129 127 128 127 125 122 121 118 116 114 113 111 109 107 105 103 103 103 103 102 100 99 98 97 97 95 94 93 92 91 91 90 88 87 85 84 83 83 83 83 83 83 83 81 79 77 74 73 74 76 78 80 82 82 83 88 94 96 95 95 94 90 85 87 91 95 97 98 101 105 110 114 117 121 124 124
141 140 141 140 140 139 138 137 134 131 129 129 128 126 123 121 119 117 115 114 111 109 107 105 104 103 102 102 102 101 100 99 98 97 95 94 93 92 91 91 90 88 86 85 83 82 81 82 81 81 81 82 80 78 75 73 73 74 75 79 81 81 80 82 86 92 96 97 96 95 92 88 89 91 94 98 98 100 102 106 111 115 120 124 124
142 141 142 142 141 140 139 138 135 133 132 131 129 127 125 122 120 118 117 114 112 110 107 105 104 102 102 102 102 102 101 100 99 98 96 95 94 92 91 90 89 88 86 85 83 81 80 80 80 80 80 80 79 77 74 72 72 74 75 78 81 81 79 81 85 89 95 98 98 97 95 91 90 92 93 97 99 99 101 103 107 113 118 122 124
143 142 143 143 142 141 140 139 137 135 134 133 131 129 126 124 122 120 117 115 113 110 108 106 104 102 101 102 103 104 103 102 100 98 96 95 93 92 91 90 88 87 86 85 84 82 80 80 80 80 80 80 80 78 75 73 71 73 76 78 82 82 79 80 82 87 95 101 103 101 98 95 93 92 93 95 98 101 102 103 106 111 117 121 122
143 143 144 144 144 144 143 140 139 137 136 134 132 131 128 126 124 121 119 116 114 111 109 106 104 102 102 102 103 105 104 104 102 99 96 94 93 92 92 91 89 86 86 86 85 84 82 80 80 80 80 80 79 78 75 73 71 72 76 79 82 84 82 80 82 86 94 100 103 103 101 99 96 94 93 93 96 99 103 105 107 111 115 119 121
144 144 145 146 146 146 145 142 141 139 138 136 135 133 130 128 125 122 120 118 115 111 108 106 103 102 102 103 104 104 104 103 102 98 96 94 93 93 93 92 89 87 86 86 86 84 82 80 79 78 78 78 78 76 75 73 72 72 76 80 83 83 82 81 81 86 92 96 101 104 103 102 99 95 93 91 92 96 101 105 109 112 114 116 118
145 146 146 147 148 149 147 144 142 142 141 139 138 136 132 130 127 124 121 119 116 112 108 105 104 103 103 104 103 103 103 102 100 98 97 96 95 94 94 92 90 87 87 87 85 83 81 80 78 77 76 76 75 74 73 72 72 72 76 81 81 79 80 82 81 84 89 93 97 101 103 104 102 98 95 92 91 93 97 102 107 111 114 116 117
147 147 148 149 150 150 149 146 145 145 143 141 140 138 135 132 128 125 123 120 117 113 110 107 105 103 103 103 103 102 102 101 100 99 98 97 97 96 95 93 91 89 88 87 85 83 80 79 77 75 74 73 73 72 71 71 71 71 74 78 77 76 77 81 83 85 88 92 94 97 101 105 105 102 100 95 91 92 95 99 104 108 112 116 119
149 149 150 151 152 151 150 149 148 148 146 144 142 140 137 133 130 127 124 121 118 114 111 109 107 105 104 103 103 102 102 102 101 99 98 98 98 98 96 94 94 92 89 87 84 82 78 76 74 73 71 71 71 70 69 69 69 69 72 75 74 75 76 79 84 86 88 90 92 94 97 102 105 106 105 99 93 93 95 98 101 105 109 113 118
151 151 152 153 153 153 152 151 151 151 149 146 144 142 139 136 133 129 126 123 119 116 113 110 109 108 106 105 104 103 102 102 102 101 99 98 97 97 97 95 95 92 88 86 83 79 76 73 71 70 69 68 68 68 68 67 68 69 71 73 73 73 76 78 82 85 86 87 90 92 94 99 103 106 108 103 97 97 98 99 99 101 106 110 114
153 155 155 156 156 155 155 154 154 153 151 149 147 145 141 139 135 131 128 125 121 118 115 112 111 110 109 107 105 103 102 102 102 102 100 98 97 96 96 95 93 90 87 84 81 77 74 72 69 68 67 67 67 66 66 65 66 68 72 73 72 72 74 77 80 83 85 85 86 88 91 97 101 103 105 103 100 101 102 101 99 98 102 107 111
155 157 158 159 159 159 158 157 157 156 154 152 150 147 144 141 138 134 131 127 124 120 117 114 112 112 111 108 106 104 102 102 103 102 100 98 96 96 95 95 93 90 87 83 80 77 75 72 69 67 67 67 67 66 65 64 66 68 72 72 72 73 73 74 77 81 82 82 82 83 87 93 99 101 102 104 105 107 105 101 99 97 98 102 107
159 160 161 162 163 162 161 161 160 159 157 155 152 150 148 144 140 137 134 130 126 123 120 116 114 114 112 110 107 105 103 102 102 101 99 97 96 96 95 94 92 89 86 83 80 77 75 71 68 67 66 65 65 65 64 64 66 68 71 72 71 71 73 73 76 78 79 82 82 82 87 90 96 99 99 104 109 112 110 104 99 95 95 97 102
163 164 165 165 166 164 164 164 163 161 160 157 155 154 151 147 143 141 137 133 130 127 123 118 116 115 113 111 109 107 105 104 104 102 99 98 96 94 94 93 91 88 84 82 79 76 74 69 66 65 64 64 63 62 63 64 64 67 69 69 68 68 71 73 74 75 76 81 82 83 88 89 92 96 96 100 104 109 111 108 102 96 93 93 95
166 166 167 167 167 167 167 167 165 163 161 159 157 157 155 150 147 145 141 138 134 131 127 122 120 118 115 114 113 110 108 107 106 104 101 99 97 94 92 91 90 89 85 81 78 74 69 65 63 61 62 62 62 60 61 63 63 64 66 67 67 65 67 70 71 73 74 78 80 83 88 89 90 92 92 95 99 104 107 108 106 101 95 89 89
168 169 168 169 170 169 169 168 167 165 163 161 160 159 157 154 151 149 146 143 139 135 131 127 125 122 119 118 115 113 111 109 107 105 104 100 96 93 90 89 90 88 85 80 75 70 64 63 60 58 59 60 59 57 59 61 61 61 61 63 64 64 67 70 69 70 73 75 79 84 87 87 89 90 90 91 95 101 104 105 104 101 97 91 86
169 170 170 170 171 171 170 170 169 167 165 163 161 161 160 158 156 153 150 148 144 140 137 133 130 127 125 123 118 115 114 111 109 108 105 102 97 93 90 88 88 85 81 75 72 68 61 58 56 56 55 55 53 50 51 52 55 58 56 57 58 64 73 71 66 67 72 75 79 86 86 86 88 89 89 89 91 95 99 102 104 102 96 91 88
172 171 172 171 171 172 170 171 170 168 167 165 164 163 162 161 159 156 154 151 148 146 143 139 135 132 130 126 122 120 118 114 113 112 107 104 98 93 90 88 86 84 78 70 68 65 57 51 51 54 50 49 49 45 46 47 50 53 52 54 55 66 78 72 64 65 70 74 79 84 86 87 89 90 91 91 92 93 95 98 101 103 99 92 88
175 174 174 172 172 171 170 172 172 170 169 167 166 165 165 164 162 159 157 154 152 150 147 143 140 136 133 129 127 126 124 119 116 114 109 105 99 91 88 86 84 81 73 65 64 62 54 48 49 52 47 46 47 43 45 50 49 51 52 52 55 64 76 74 65 63 69 72 76 81 84 89 91 92 94 96 97 95 93 94 96 99 99 95 90
177 177 176 175 174 173 172 173 173 172 170 168 168 167 167 166 164 162 160 157 156 153 149 146 145 141 138 135 132 130 128 124 119 116 111 105 98 89 85 83 81 76 68 61 60 57 51 48 48 47 46 46 44 41 45 51 49 51 53 50 53 57 65 76 67 64 71 72 75 79 81 89 93 93 94 96 99 97 93 92 94 93 93 93 90
179 179 179 177 176 175 175 175 175 174 172 171 169 169 169 167 166 165 163 161 159 156 152 149 147 146 144 141 136 132 132 127 120 117 112 104 94 88 85 81 76 69 64 60 58 55 49 45 44 43 47 46 42 41 44 49 46 48 51 48 50 48 54 71 67 70 76 72 74 78 79 85 91 93 93 93 96 100 98 95 93 91 90 90 87
182 180 180 179 178 178 178 177 177 176 175 173 172 171 171 169 168 168 166 164 164 161 157 153 151 150 148 145 138 132 132 128 122 119 111 102 94 87 82 78 72 63 60 57 55 54 46 40 41 43 46 43 39 41 41 43 42 44 45 44 49 51 55 60 67 84 79 67 69 73 77 81 83 88 90 89 92 101 104 101 98 95 93 91 90
184 182 181 181 180 180 179 179 178 178 176 175 174 173 172 170 169 170 168 167 166 163 159 158 155 153 151 150 144 133 130 129 123 121 112 103 98 87 80 75 69 63 57 54 54 50 44 41 43 41 42 43 39 35 36 40 40 39 38 36 36 39 45 50 73 90 76 66 68 71 74 77 79 83 87 87 88 97 102 102 100 98 97 91 92
185 184 183 183 182 181 180 180 180 179 178 176 176 175 174 172 172 172 171 170 169 165 161 161 159 156 155 155 150 141 134 130 127 123 115 105 98 88 79 73 66 64 55 50 52 49 44 44 43 37 37 45 40 32 36 42 42 40 40 35 26 31 41 50 80 86 68 67 68 71 74 73 77 79 85 90 90 96 100 101 97 94 94 91 91
187 185 184 184 183 183 182 181 181 181 180 179 178 177 176 175 175 175 173 173 173 169 166 165 162 158 159 158 154 149 140 132 132 128 118 105 95 86 77 72 66 63 57 50 51 50 45 43 41 37 35 38 37 34 35 38 41 40 42 37 29 46 50 48 79 82 60 64 67 76 77 71 75 76 85 94 95 99 100 103 99 93 90 88 88
189 187 186 185 184 183 183 183 182 183 182 180 180 179 178 177 177 177 176 176 175 172 170 168 165 161 162 160 157 157 151 141 138 131 122 112 101 89 76 71 66 61 60 53 52 53 49 46 40 36 35 33 33 34 33 33 35 34 38 37 28 38 39 46 74 71 57 64 67 76 76 70 72 74 87 97 102 104 102 107 102 96 91 84 82
190 188 187 186 186 185 185 184 184 184 183 182 181 180 179 179 179 179 179 178 177 175 173 171 168 165 166 164 160 162 160 153 147 139 130 118 103 90 76 68 63 61 60 51 49 51 48 45 36 34 35 32 32 33 33 32 32 33 33 31 22 17 16 46 75 72 70 74 67 70 73 70 70 72 83 93 102 102 101 109 103 96 90 78 74
190 189 188 187 187 186 186 185 184 185 185 183 182 182 181 180 180 181 181 181 179 177 176 174 172 169 169 169 166 165 164 160 153 146 137 123 105 91 81 72 67 62 57 49 48 48 45 42 35 35 33 30 31 31 35 36 35 39 37 36 29 26 35 53 83 84 74 71 60 61 69 68 69 71 77 84 94 98 97 102 100 92 81 72 66
191 190 189 188 188 187 186 185 185 186 186 185 184 184 183 182 182 182 182 183 181 180 179 176 175 173 172 171 169 168 167 164 158 152 144 132 115 98 84 76 71 62 55 52 51 47 43 41 37 36 34 33 34 33 37 39 40 44 44 45 31 26 48 57 71 82 60 57 56 57 64 67 71 73 75 80 86 93 95 94 100 95 81 73 57
192 191 190 189 188 188 187 186 185 186 187 185 185 185 184 184 184 184 184 184 183 182 181 179 177 175 174 173 171 171 170 166 162 157 149 141 125 108 94 81 71 59 55 54 53 53 51 49 45 43 44 42 41 40 42 44 48 53 50 48 30 25 47 53 50 62 54 59 65 59 61 63 68 73 72 73 75 81 86 86 96 97 90 77 55
193 192 192 190 189 188 188 187 186 187 187 186 186 186 186 186 186 186 185 186 185 184 183 182 180 178 176 175 174 172 171 169 166 161 155 148 133 116 104 89 77 62 58 56 59 63 59 56 51 49 50 48 48 46 47 51 52 55 52 48 36 26 37 49 43 53 60 64 66 62 64 60 58 63 61 62 67 70 70 74 84 86 85 70 48
193 192 192 191 190 189 189 188 187 187 187 186 187 187 186 187 187 187 187 188 188 186 185 184 182 181 178 177 176 173 171 172 168 164 160 153 141 124 110 96 85 70 62 61 66 70 63 60 56 53 53 51 53 51 51 56 51 55 56 51 46 36 39 59 59 61 66 64 56 47 69 73 61 59 60 59 60 59 60 64 68 68 68 56 34
193 192 192 192 191 190 190 190 188 188 187 186 187 188 187 188 189 189 189 190 190 188 187 186 185 184 180 177 177 174 171 172 171 169 164 159 151 134 122 110 97 79 70 69 73 75 70 66 62 59 58 55 57 55 54 57 55 59 58 51 51 45 46 61 70 71 65 60 52 41 59 71 64 66 65 60 59 58 58 63 63 57 50 36 19
193 193 193 193 193 192 191 191 189 189 188 188 189 189 189 190 190 190 190 191 192 190 188 188 188 186 182 179 181 179 174 174 173 173 169 166 161 148 137 128 113 91 80 81 83 82 76 69 66 65 62 59 60 59 59 61 63 64 61 58 55 48 53 60 61 71 69 65 60 46 51 66 69 70 64 61 69 70 67 67 62 52 42 27 16
194 194 194 194 194 193 193 192 191 190 190 190 190 191 190 191 192 191 191 192 193 193 191 190 189 188 185 183 185 184 179 178 177 176 175 172 169 160 152 139 118 99 92 95 93 87 77 70 69 67 65 65 63 60 60 60 63 68 66 64 57 48 55 56 53 72 78 75 66 48 50 68 68 62 62 70 74 73 70 60 52 44 35 22 12
195 195 195 195 194 194 194 193 192 191 192 191 192 192 191 192 193 193 193 193 195 196 196 194 192 190 188 187 190 189 184 183 182 181 180 179 177 172 167 154 131 113 107 109 102 89 78 73 73 69 68 68 62 58 58 54 57 67 64 58 57 54 51 44 48 70 78 75 71 60 61 66 58 55 68 76 73 74 76 59 44 32 17 4 359
196 195 195 196 195 195 195 194 194 193 193 193 193 193 193 193 195 196 196 195 196 197 197 197 196 193 190 190 194 194 190 189 188 188 188 187 186 184 180 172 155 139 127 120 109 98 87 80 79 75 72 70 63 58 57 51 51 61 57 50 57 58 48 46 56 67 68 65 71 71 68 69 59 60 72 70 66 73 73 60 44 32 20 7 1
198 196 196 196 197 196 196 196 195 194 195 195 195 195 195 195 195 196 196 196 197 197 196 197 197 197 194 194 198 198 196 195 195 195 194 193 193 191 188 183 177 168 155 140 123 113 101 92 86 80 75 71 65 57 55 51 51 58 52 46 56 56 48 53 59 59 54 55 69 67 66 78 72 66 69 59 62 69 58 48 42 40 39 32 26
200 198 196 197 198 197 196 197 196 195 196 196 196 197 197 197 197 197 197 197 198 197 198 198 197 198 199 198 202 203 200 200 202 202 201 199 199 197 194 192 194 190 182 175 158 141 124 109 95 83 75 71 64 55 53 53 53 56 49 46 54 54 52 55 54 55 51 47 60 63 66 78 71 62 62 56 62 58 43 41 36 36 41 43 42
201 199 198 198 199 198 197 197 198 197 197 197 198 199 199 199 199 200 200 200 200 199 201 201 199 200 201 201 204 207 205 203 206 207 207 206 206 206 202 201 205 205 204 199 191 183 158 125 104 89 71 68 66 58 56 55 50 50 50 48 47 45 52 57 54 56 54 45 50 58 65 67 58 54 52 59 72 52 43 47 37 32 38 44 47
201 200 199 199 199 199 198 198 199 199 199 199 199 200 201 201 201 201 201 203 202 202 203 204 202 201 203 203 205 210 209 207 209 211 211 211 210 211 211 210 212 215 219 216 211 209 200 182 143 116 72 65 70 61 60 56 50 52 54 47 38 40 49 55 56 58 53 46 45 50 57 52 53 59 42 47 79 62 48 50 39 36 39 40 43
203 201 199 200 200 200 199 199 199 200 200 200 200 202 202 202 203 203 203 204 204 203 204 206 205 202 204 206 207 211 213 212 213 213 214 215 213 215 217 216 216 219 226 228 225 224 224 224 207 188 151 68 63 54 60 57 50 51 50 42 37 42 48 49 56 59 53 50 45 44 50 45 50 59 41 43 62 55 47 46 40 43 42 38 39
204 202 201 201 201 200 200 199 200 201 201 201 201 202 203 204 205 205 205 205 205 205 206 208 209 207 207 208 209 211 213 216 217 216 217 219 218 218 220 222 221 222 226 230 231 231 234 235 226 222 229 238 259 15 51 56 49 41 37 37 36 42 47 45 50 56 53 52 47 40 49 52 49 49 40 39 43 44 50 41 31 39 36 30 36
206 204 202 201 201 201 201 200 201 202 202 202 202 203 204 205 206 206 206 206 206 206 207 209 211 212 211 212 212 212 214 218 221 220 219 222 223 222 224 227 227 229 229 231 234 234 237 239 234 231 236 246 251 267 306 356 49 34 25 28 31 37 42 40 46 51 48 47 43 34 39 47 46 46 40 34 28 28 38 27 12 18 18 18 27